Starlink 35724

operational
NORAD ID: 66279 Int'l Des: 2025-247 Owner: SPXS Country: US Constellation: starlink
NOTLE

Starlink 35724について

説明を読み込み中...

リアルタイム位置

3D地球を読み込み中...

次回通過

高度履歴

Altitude vs Time

uPlot chart will show altitude changes over time

軌道要素

1 66279U 25247Q 25351.93851665 .00030906 00000-0 77935-3 0 9991
2 66279 53.1589 212.8366 0001199 87.0124 273.1018 15.39625721 8497
Epoch: Dec 17, 2025 • Age: 24 hours

現在のステータス

高度 449.3 km
速度 7.65 km/s
衛星直下点 36.76°N, 177.26°W
打ち上げ日 Oct 31, 2025
運用期間 0.1 years
タイプ internet

技術仕様

分類 Payload
質量 575.00 kg
乾燥質量 530.00 kg
総質量 575.00 kg
長さ 0.30 m
直径 4.10 m
スパン 29.00 m
形状 Box + pan
製造者 SPXS
バスタイプ Starlink V2MO
フェーズステータス In Orbit
所有者/国 SPXS/US

大規模コンステレーション

Loading constellations...